Saison 2024 · Manche 8

Monaco Grand Prix

2024-05-26 · Circuit de Monaco · Monaco · Monaco Grand Prix · 78Lap · 260.286km
Ferrari 2:23:15.554
Victoire par équipe 40pt P1 · P3 1-3
McLaren +7.152
Ferrari +7.585
Meilleur tour
1:14.165 · L63
Abandon
4
Esteban Ocon L0 Sergio Pérez L0 Nico Hülkenberg L0 Kevin Magnussen L0
Météo
22°/46°
moy. air/piste · sec · humidité 64%
Voiture de sécurité
0
Déploiements SC/VSC
Utilisation des pneus Direction de course
Storylines · This Grand Prix & circuit
Plus de victoires à ce GP
Ayrton Senna 6 victoires
Michael Schumacher 5 victoires
Graham Hill 5 victoires
Conversion pole-victoire 34/72 47.2%
Most DNFs · all-time P11
Most SC/VSC · all-time P14
Arrivée la plus serrée · all-time P13
Most lead changes · all-time P12
Circuit Info
Circuit de Monaco Monte Carlo, Monaco
78Lap 260.286km 72 courses held (1950–) Record du tour 1:12.909 · Lewis Hamilton (2021)
Records Watch · Active drivers ranked at this Grand Prix
P5 Lewis Hamilton 3 victoires · → Alain Prost -1
P9 Fernando Alonso 2 victoires · → Nico Rosberg -1
P9 Max Verstappen 2 victoires · → Nico Rosberg -1
P1 Fernando Alonso 22 départs · GP #1
P2 Lewis Hamilton 19 départs · → Fernando Alonso -3
P11 Sergio Pérez 14 départs · → Felipe Massa -1
Course Trace · position by lap
drapeau rouge · course suspendue · tour 1 départ arrêté · tour 2 départ arrêté SG 1 7 13 19 25 31 37 43 49 55 61 67 73 FIN Leclerc LEC Leclerc LEC Piastri · arrêt aux stands L1 Piastri PIA Piastri PIA Sainz · arrêt aux stands L1 Sainz SAI Sainz SAI Norris · arrêt aux stands L1 Norris NOR Norris NOR Russell · arrêt aux stands L1 Russell RUS Russell RUS Verstappen · arrêt aux stands L1 Verstappen · arrêt aux stands L52 Verstappen VER Verstappen VER Hamilton · arrêt aux stands L1 Hamilton · arrêt aux stands L51 Hamilton HAM Hamilton HAM Tsunoda · arrêt aux stands L1 Tsunoda TSU Tsunoda TSU Albon · arrêt aux stands L1 Albon ALB Albon ALB Gasly · arrêt aux stands L1 Gasly GAS Gasly GAS Alonso · arrêt aux stands L1 Alonso ALO Alonso ALO Ricciardo · arrêt aux stands L1 Ricciardo RIC Ricciardo RIC Bottas · arrêt aux stands L1 Bottas · arrêt aux stands L15 Bottas BOT Bottas BOT Stroll · arrêt aux stands L1 Stroll · arrêt aux stands L42 Stroll · arrêt aux stands L48 Stroll STR Stroll STR Sargeant · arrêt aux stands L1 Sargeant · arrêt aux stands L57 Sargeant SAR Sargeant SAR Zhou · arrêt aux stands L1 Zhou · arrêt aux stands L70 Zhou ZHO Zhou ZHO Ocon · abandon L0 Ocon OCO Ocon OCO Pérez · abandon L0 Pérez PER Pérez PER Hülkenberg · abandon L0 Hülkenberg HUL Hülkenberg HUL Magnussen · abandon L0 Magnussen MAG Magnussen MAG
arrêt aux stands pénalité purgée aux stands drapeau rouge départ arrêté SG Grille de départ FIN classement officiel pénalité ajoutée après la course voiture arrêtée position à chaque tour (depuis 1996)
PosPiloteTeamGrilleTourTemps / StatutPoints
1 16 Charles Leclerc Ferrari 1 78 2:23:15.554 25
2 81 Oscar Piastri McLaren 2 78 +7.152 18
3 55 Carlos Sainz Ferrari 3 78 +7.585 15
4 4 Lando Norris McLaren 4 78 +8.650 12
5 63 George Russell Mercedes 5 78 +13.309 10
6 1 Max Verstappen Red Bull 6 78 +13.853 8
7 44 Lewis Hamilton FL Mercedes 7 78 +14.908 7
8 22 Yuki Tsunoda RB F1 Team 8 77 +39.487 4
9 23 Alexander Albon Williams 9 77 +54.052 2
10 10 Pierre Gasly Alpine F1 Team 10 77 +1:00.241 1
11 14 Fernando Alonso Aston Martin 14 76 +3.854
12 3 Daniel Ricciardo RB F1 Team 12 76 +4.264
13 77 Valtteri Bottas Sauber 17 76 +4.488
14 18 Lance Stroll Aston Martin 13 76 +5.967
15 2 Logan Sargeant Williams 15 76 +9.026
16 24 Guanyu Zhou Sauber 18 76 +55.260
R 31 Esteban Ocon Alpine F1 Team 11 0 Retired
R 11 Sergio Pérez Red Bull 16 0 Retired
R 27 Nico Hülkenberg Haas F1 Team 19 0 Retired
R 20 Kevin Magnussen Haas F1 Team 20 0 Retired
PosPiloteTeamQ1Q2Q3Écart à la pole
1 16 Charles Leclerc Ferrari 1:11.584 1:10.825 1:10.270 POLE Q3
2 81 Oscar Piastri McLaren 1:11.500 1:10.756 1:10.424 +0.154 Q3
3 55 Carlos Sainz Ferrari 1:11.543 1:11.075 1:10.518 +0.248 Q3
4 4 Lando Norris McLaren 1:11.760 1:10.732 1:10.542 +0.272 Q3
5 63 George Russell Mercedes 1:11.492 1:10.929 1:10.543 +0.273 Q3
6 1 Max Verstappen Red Bull 1:11.711 1:10.745 1:10.567 +0.297 Q3
7 44 Lewis Hamilton Mercedes 1:11.528 1:11.056 1:10.621 +0.351 Q3
8 22 Yuki Tsunoda RB F1 Team 1:11.852 1:11.106 1:10.858 +0.588 Q3
9 23 Alexander Albon Williams 1:11.623 1:11.216 1:10.948 +0.678 Q3
10 10 Pierre Gasly Alpine F1 Team 1:11.714 1:10.896 1:11.311 +0.626 Q2
11 31 Esteban Ocon Alpine F1 Team 1:11.887 1:11.285 +1.015 Q2
12 3 Daniel Ricciardo RB F1 Team 1:11.785 1:11.482 +1.212 Q2
13 18 Lance Stroll Aston Martin 1:11.728 1:11.563 +1.293 Q2
14 27 Nico Hülkenberg Haas F1 Team 1:11.876 1:11.440 +1.170 Q2
14 14 Fernando Alonso Aston Martin 1:12.019 +1.749 Q1
15 2 Logan Sargeant Williams 1:12.020 +1.750 Q1
15 20 Kevin Magnussen Haas F1 Team 1:11.832 1:11.725 +1.455 Q2
16 11 Sergio Pérez Red Bull 1:12.060 +1.790 Q1
17 77 Valtteri Bottas Sauber 1:12.512 +2.242 Q1
18 24 Guanyu Zhou Sauber 1:13.028 +2.758 Q1
Grille de départ
Officielle
10
11
13
18
19
Alleged impeding of Car 31 · Technical non-compliance · Failing to set a lap time in Qualifications
20
20 Kevin Magnussen ▼5
Technical non-compliance · Failing to set a lap time in Qualifications
Final grid as classé, including any depuis la voie des stands départs. Source: Jolpica-F1. The arrow compares the grid slot with the les qualifications classification; hover a drop to see the stewards document behind it.
Aucune donnée pour cette séance.
PosPiloteMeilleur tourÉcartTours
1 44 Lewis Hamilton 1:12.169 35
2 81 Oscar Piastri 1:12.198 +0.029 31
3 63 George Russell 1:12.295 +0.126 35
4 4 Lando Norris 1:12.396 +0.227 33
5 16 Charles Leclerc 1:12.397 +0.228 33
6 14 Fernando Alonso 1:12.775 +0.606 26
7 18 Lance Stroll 1:12.789 +0.620 26
8 22 Yuki Tsunoda 1:12.875 +0.706 34
9 3 Daniel Ricciardo 1:12.901 +0.732 36
10 55 Carlos Sainz 1:12.954 +0.785 35
11 1 Max Verstappen 1:12.984 +0.815 29
12 11 Sergio Pérez 1:13.229 +1.060 29
13 77 Valtteri Bottas 1:13.248 +1.079 28
14 20 Kevin Magnussen 1:13.390 +1.221 33
15 23 Alexander Albon 1:13.425 +1.256 34
16 27 Nico Hülkenberg 1:13.576 +1.407 34
17 2 Logan Sargeant 1:14.150 +1.981 36
18 31 Esteban Ocon 1:14.159 +1.990 33
19 24 Guanyu Zhou 1:14.570 +2.401 30
20 10 Pierre Gasly 1:15.574 +3.405 10
Classified by best lap · source OpenF1 (2023+)
PosPiloteMeilleur tourÉcartTours
1 16 Charles Leclerc 1:11.278 37
2 44 Lewis Hamilton 1:11.466 +0.188 32
3 14 Fernando Alonso 1:11.753 +0.475 37
4 1 Max Verstappen 1:11.813 +0.535 37
5 4 Lando Norris 1:11.953 +0.675 35
6 55 Carlos Sainz 1:11.962 +0.684 36
7 18 Lance Stroll 1:12.062 +0.784 22
8 11 Sergio Pérez 1:12.099 +0.821 31
9 23 Alexander Albon 1:12.257 +0.979 38
10 63 George Russell 1:12.260 +0.982 30
11 22 Yuki Tsunoda 1:12.349 +1.071 36
12 81 Oscar Piastri 1:12.366 +1.088 35
13 20 Kevin Magnussen 1:12.473 +1.195 31
14 31 Esteban Ocon 1:12.554 +1.276 34
15 27 Nico Hülkenberg 1:12.569 +1.291 34
16 3 Daniel Ricciardo 1:12.577 +1.299 37
17 10 Pierre Gasly 1:12.750 +1.472 35
18 2 Logan Sargeant 1:12.790 +1.512 36
19 77 Valtteri Bottas 1:13.057 +1.779 31
20 24 Guanyu Zhou 1:13.773 +2.495 32
Classified by best lap · source OpenF1 (2023+)
PosPiloteMeilleur tourÉcartTours
1 16 Charles Leclerc 1:11.369 26
2 1 Max Verstappen 1:11.566 +0.197 27
3 44 Lewis Hamilton 1:11.710 +0.341 25
4 81 Oscar Piastri 1:11.901 +0.532 25
5 11 Sergio Pérez 1:11.923 +0.554 24
6 63 George Russell 1:11.968 +0.599 33
7 55 Carlos Sainz 1:11.979 +0.610 26
8 4 Lando Norris 1:11.988 +0.619 24
9 22 Yuki Tsunoda 1:11.991 +0.622 27
10 14 Fernando Alonso 1:12.087 +0.718 25
11 10 Pierre Gasly 1:12.144 +0.775 26
12 23 Alexander Albon 1:12.180 +0.811 24
13 27 Nico Hülkenberg 1:12.192 +0.823 24
14 20 Kevin Magnussen 1:12.216 +0.847 31
15 18 Lance Stroll 1:12.331 +0.962 25
16 31 Esteban Ocon 1:12.472 +1.103 25
17 2 Logan Sargeant 1:12.703 +1.334 21
18 3 Daniel Ricciardo 1:12.829 +1.460 28
19 24 Guanyu Zhou 1:13.830 +2.461 28
20 77 Valtteri Bottas 1:26.364 +14.995 2
Classified by best lap · source OpenF1 (2023+)
#PiloteTemps au tourTour
1 44 Lewis Hamilton 1:14.165 L63
2 44 Lewis Hamilton 1:14.204 L59
3 44 Lewis Hamilton 1:14.423 L56
4 1 Max Verstappen 1:14.569 L58
5 24 Guanyu Zhou 1:14.718 L75
6 22 Yuki Tsunoda 1:14.720 L77
7 55 Carlos Sainz 1:14.726 L62
8 1 Max Verstappen 1:14.748 L59
9 55 Carlos Sainz 1:14.813 L64
10 22 Yuki Tsunoda 1:14.992 L75
Top 10 la plus rapide race tours — #1 is the la plus rapide lap of la course(FL).
Arrêts aux stands · comparaison
24s 25s 26s 27s 28s médiane 24.2s Max Verstappen · L52 · 23.813s Lance Stroll · L42 · 24.132s Lewis Hamilton · L51 · 24.232s Valtteri Bottas · L15 · 24.239s Guanyu Zhou · L70 · 24.367s Logan Sargeant · L57 · 24.384s Lance Stroll · L48 · 28.211s
la plus rapide 23.813s Max Verstappen la plus lente 28.211s Lance Stroll temps de passage dans la voie des stands — un point par arrêt
PiloteArrêtTourTempsPassage dans la voie des stands
23 Alexander Albon 1 1 15:05:05
24 Guanyu Zhou 1 1 15:05:31
22 Yuki Tsunoda 1 1 15:05:02
2 Logan Sargeant 1 1 15:05:16
3 Daniel Ricciardo 1 1 15:05:13
1 Max Verstappen 1 1 15:04:57
18 Lance Stroll 1 1 15:05:10
55 Carlos Sainz 1 1 15:05:27
63 George Russell 1 1 15:04:56
81 Oscar Piastri 1 1 15:04:52
4 Lando Norris 1 1 15:04:54
10 Pierre Gasly 1 1 15:05:07
14 Fernando Alonso 1 1 15:05:15
44 Lewis Hamilton 1 1 15:05:00
16 Charles Leclerc 1 1 15:04:50
77 Valtteri Bottas 1 1 15:05:19
77 Valtteri Bottas 2 15 16:04:57 24.239s
18 Lance Stroll 2 42 16:41:05 24.132s
18 Lance Stroll 3 48 16:49:27 28.211s
44 Lewis Hamilton 2 51 16:52:10 24.232s
1 Max Verstappen 2 52 16:53:26 23.813s
2 Logan Sargeant 2 57 17:01:43 24.384s
24 Guanyu Zhou 2 70 17:19:04 24.367s
arrêts
SG 10 20 30 40 50 60 70 L78
16
1
M1
H77
81
1
M1·+1
H77·+1
55
1
M1
H77
4
1
M1·+1
H77
63
1
H1
M77
1
2
H1
M50
H27
44
2
H1
M49
H28
22
1
M1
H76·+1
23
1
M1
H76
10
1
H1
M76
14
1
H1·+1
M75·+1
3
1
M1
H75·+1
77
2
H1
M13
H62·+1
18
3
H1·+1
M40·+1
H6
S29
2
2
H56·+1
M20
24
2
M1
H68
S7
31
0
H1
11
0
H1
27
0
M1
20
0
H1
S Soft M Medium H Hard I Intermediate W Wet SC·VSC drapeau rouge départ arrêté arrêt aux stands pénalité purgée aux stands
Course · largeur de barre = tours sur ce train, ·+N = monté usagé avec N tours au compteur · source OpenF1 (2023+)
Composés désignés pour ce Grand Prix
C3 Dur C4 Medium C5 Tendre
Pirelli désigne trois de ses composés slicks pour chaque épreuve ; plus le numéro C est élevé, plus le pneu est tendre. Document FIA ↗
Plus de places gagnées en piste
77
+4
P17→P13
2
+3
P15→P15
24
+3
P18→P16
14
+2
P14→P11
18
+2
P13→P14
3
+1
P12→P12
16
+0
P1→P1
81
+0
P2→P2
Plus de places perdues
Lance Stroll −5 Logan Sargeant −4 Guanyu Zhou −3
Course · Somme des places gagnées en piste tour par tour — tour de départ et tours aux stands du pilote exclus. Données de tours de course depuis 1996.
PiloteTypeTourPurgéeInfligéeMotif
31 Esteban Ocon Pénalité sur la grille ▼5 · 2pt Collision between Car 31 & Car 10 in Turn 8. (10 second time penalty, converted to a drop of 5 grid positions for the next Course in which the drive) Document FIA ↗
▼5 · 2pt Collision between Car 31 & Car 10 in Turn 8. (10 second time penalty, converted to a drop of 5 grid positions for the next Course in which the drive) Document FIA ↗
31 Esteban Ocon Time penalty 8 Après la course +10s CAUSING A COLLISION
Tour 8 · Purgée Après la course · +10s CAUSING A COLLISION
Tour = tour où la pénalité a été infligée · Purgée = tour où elle a été purgée aux stands (vide : ajoutée au temps de course)
Time, drive-through and stop-go penalties come from race control messages (OpenF1, 2023+). Grille penalties never appear there — the stewards publish them as documents after the session — so they are worked back from the starting grid against the les qualifications classification, which gives places actually lost rather than the figure written in the decision.
PiloteTypeTourPurgéeInfligéeMotif
27 Nico Hülkenberg 실격 Non-compliant rear wing element. (Car 27 is disqualifié from the Qualifications classification.) Document FIA ↗
Non-compliant rear wing element. (Car 27 is disqualifié from the Qualifications classification.) Document FIA ↗
27 Nico Hülkenberg No further action Car 27 allegedly unnecessarily impeded Car 31 in turn 3. (No further action.) Document FIA ↗
Car 27 allegedly unnecessarily impeded Car 31 in turn 3. (No further action.) Document FIA ↗
55 Carlos Sainz No further action Car 55 allegedly unnecessarily impeded Car 23 in turn 15. (No further action.) Document FIA ↗
Car 55 allegedly unnecessarily impeded Car 23 in turn 15. (No further action.) Document FIA ↗
11 Sergio Pérez Tours supprimés TRACK LIMITS (PIT)
TRACK LIMITS (PIT)
55 Carlos Sainz Tours supprimés TRACK LIMITS (PIT)
TRACK LIMITS (PIT)
27 Nico Hülkenberg Tours supprimés TRACK LIMITS (PIT)
TRACK LIMITS (PIT)
27 Nico Hülkenberg Tours supprimés TRACK LIMITS (PIT)
TRACK LIMITS (PIT)
3 Daniel Ricciardo Tours supprimés TRACK LIMITS (PIT)
TRACK LIMITS (PIT)
27 Nico Hülkenberg Tours supprimés TRACK LIMITS (PIT)
TRACK LIMITS (PIT)
27 Nico Hülkenberg Tours supprimés TRACK LIMITS (PIT)
TRACK LIMITS (PIT)
18 Lance Stroll Tours supprimés TRACK LIMITS (PIT)
TRACK LIMITS (PIT)
55 Carlos Sainz Tours supprimés TRACK LIMITS (PIT)
TRACK LIMITS (PIT)
Tour = tour où la pénalité a été infligée · Purgée = tour où elle a été purgée aux stands (vide : ajoutée au temps de course)
Time, drive-through and stop-go penalties come from race control messages (OpenF1, 2023+). Grille penalties never appear there — the stewards publish them as documents after the session — so they are worked back from the starting grid against the les qualifications classification, which gives places actually lost rather than the figure written in the decision.
PiloteTypeTourPurgéeInfligéeMotif
4 Lando Norris Réprimande Incident between Cars 4 and 63 at T10. (Réprimande (Driving). This is the driver’s 2nd reprimand of the season.) Document FIA ↗
Incident between Cars 4 and 63 at T10. (Réprimande (Driving). This is the driver’s 2nd reprimand of the season.) Document FIA ↗
1 Max Verstappen Black-and-white flag warning Driving unnecessarily slowly. (Warning.) Document FIA ↗
Driving unnecessarily slowly. (Warning.) Document FIA ↗
Tour = tour où la pénalité a été infligée · Purgée = tour où elle a été purgée aux stands (vide : ajoutée au temps de course)
Time, drive-through and stop-go penalties come from race control messages (OpenF1, 2023+). Grille penalties never appear there — the stewards publish them as documents after the session — so they are worked back from the starting grid against the les qualifications classification, which gives places actually lost rather than the figure written in the decision.
PiloteTypeTourPurgéeInfligéeMotif
18 Lance Stroll Fine €100 Pit lane speeding – 60.2 km/h (The competitor (Aston Martin Aramco F1 Team) is fined €100.) Document FIA ↗
€100 Pit lane speeding – 60.2 km/h (The competitor (Aston Martin Aramco F1 Team) is fined €100.) Document FIA ↗
77 Valtteri Bottas Fine €1,000 Pit lane speeding – 74.6 km/h (The competitor (Stake F1 Team Kick Sauber) is fined €1,000) Document FIA ↗
€1,000 Pit lane speeding – 74.6 km/h (The competitor (Stake F1 Team Kick Sauber) is fined €1,000) Document FIA ↗
Tour = tour où la pénalité a été infligée · Purgée = tour où elle a été purgée aux stands (vide : ajoutée au temps de course)
Time, drive-through and stop-go penalties come from race control messages (OpenF1, 2023+). Grille penalties never appear there — the stewards publish them as documents after the session — so they are worked back from the starting grid against the les qualifications classification, which gives places actually lost rather than the figure written in the decision.
PiloteTypeTourPurgéeInfligéeMotif
20 Kevin Magnussen 실격 Non-compliant rear wing element. (Car 20 is disqualifié from the Qualifications classification.) Document FIA ↗
Non-compliant rear wing element. (Car 20 is disqualifié from the Qualifications classification.) Document FIA ↗
Tour = tour où la pénalité a été infligée · Purgée = tour où elle a été purgée aux stands (vide : ajoutée au temps de course)
Time, drive-through and stop-go penalties come from race control messages (OpenF1, 2023+). Grille penalties never appear there — the stewards publish them as documents after the session — so they are worked back from the starting grid against the les qualifications classification, which gives places actually lost rather than the figure written in the decision.
DocTitreObjetPublished(CET)
Event Notes - Pirelli Preview ↗ 2024-05-22 12:51
2024-05-22 12:51 CET
Post-Course Checks on Car 16, Emilia Romagna GP ↗ 16 Charles Leclerc 2024-05-22 16:01
16 Charles Leclerc 2024-05-22 16:01 CET
Course Director's Event Notes ↗ 2024-05-22 16:02
2024-05-22 16:02 CET
Event Notes - Circuit Map, Pit Lane Drawing and Red Zone ↗ 2024-05-23 15:19
2024-05-23 15:19 CET
Car Display Procedure ↗ 2024-05-23 18:16
2024-05-23 18:16 CET
RNCs utilisés per driver up to now ↗ 2024-05-24 09:33
2024-05-24 09:33 CET
PU elements utilisés per driver up to now ↗ 2024-05-24 09:33
2024-05-24 09:33 CET
Car Presentation Submissions ↗ 2024-05-24 11:00
2024-05-24 11:00 CET
Self Scrutineering ↗ 2024-05-24 11:17
2024-05-24 11:17 CET
Entry List ↗ 2024-05-24 11:30
2024-05-24 11:30 CET
New PU elements for this Competition ↗ 2024-05-24 13:35
2024-05-24 13:35 CET
Infringement - Car 77 - Pit Lane Speeding ↗ 77 Valtteri Bottas 2024-05-24 14:17
77 Valtteri Bottas 2024-05-24 14:17 CET
P1 Classification ↗ 2024-05-24 14:52
2024-05-24 14:52 CET
Course Director's Event Notes V2 ↗ 2024-05-24 14:57
2024-05-24 14:57 CET
Infringement - Car 18 - Pit Lane Speeding ↗ 18 Lance Stroll 2024-05-24 15:28
18 Lance Stroll 2024-05-24 15:28 CET
P2 Classification ↗ 2024-05-24 18:15
2024-05-24 18:15 CET
Course Director´s Note - SC2-SC1 Time ↗ 2024-05-24 18:24
2024-05-24 18:24 CET
P1 and P2 Scrutineering ↗ 2024-05-24 19:48
2024-05-24 19:48 CET
Post-Qualifications Procedure ↗ 2024-05-25 08:59
2024-05-25 08:59 CET
Summons - Car 4 - Incident with Car 63 ↗ 4 Lando Norris 2024-05-25 13:43
4 Lando Norris 2024-05-25 13:43 CET
Summons - Car 63 - Incident with Car 4 ↗ 63 George Russell 2024-05-25 13:46
63 George Russell 2024-05-25 13:46 CET
Summons - Car 1 - Alleged driving unnecessarily slowly ↗ 1 Max Verstappen 2024-05-25 13:52
1 Max Verstappen 2024-05-25 13:52 CET
P3 Classification ↗ 2024-05-25 13:55
2024-05-25 13:55 CET
Infringement - Car 4 - Incident with Car 63 ↗ 4 Lando Norris 2024-05-25 15:13
4 Lando Norris 2024-05-25 15:13 CET
Infringement - Car 1 - Driving unnecessarily slowly ↗ 1 Max Verstappen 2024-05-25 15:23
1 Max Verstappen 2024-05-25 15:23 CET
Summons - Car 27 - Alleged Impeding of Car 31 ↗ 27 Nico Hülkenberg 2024-05-25 16:59
27 Nico Hülkenberg 2024-05-25 16:59 CET
Summons - Car 55 - Alleged Impeding of Car 23 ↗ 55 Carlos Sainz 2024-05-25 17:01
55 Carlos Sainz 2024-05-25 17:01 CET
Summons - Car 23 - Alleged Impeding by Car 55 ↗ 23 Alexander Albon 2024-05-25 17:02
23 Alexander Albon 2024-05-25 17:02 CET
Summons - Car 31 - Alleged Impeding by Car 27 ↗ 31 Esteban Ocon 2024-05-25 17:18
31 Esteban Ocon 2024-05-25 17:18 CET
Provisional Qualifications Classification ↗ 2024-05-25 17:23
2024-05-25 17:23 CET
Qualifications Deleted Tour Times ↗ 2024-05-25 17:29
2024-05-25 17:29 CET
Qualifications SC2-SC1 Times ↗ 2024-05-25 17:31
2024-05-25 17:31 CET
DRS Car Numbers 20 and 27 ↗ 2024-05-25 18:47
2024-05-25 18:47 CET
Summons - Haas - Alleged technical non-compliance (Rear wings) ↗ 2024-05-25 19:21
2024-05-25 19:21 CET
Decision - Car 55 - Alleged impeding of Car 23 ↗ 55 Carlos Sainz 2024-05-25 19:49
55 Carlos Sainz 2024-05-25 19:49 CET
Decision - Car 27 - Alleged impeding of Car 31 ↗ 27 Nico Hülkenberg 2024-05-25 20:04
27 Nico Hülkenberg 2024-05-25 20:04 CET
Infringement - Car 27 - Technical non-compliance ↗ 27 Nico Hülkenberg 2024-05-25 20:24
27 Nico Hülkenberg 2024-05-25 20:24 CET
Infringement - Car 20 - Technical non-compliance ↗ 20 Kevin Magnussen 2024-05-25 20:24
20 Kevin Magnussen 2024-05-25 20:24 CET
P3 and Qualifications Scrutineering ↗ 2024-05-25 20:29
2024-05-25 20:29 CET
Decision - Car 20 - Failing to set a lap time in Qualifications ↗ 20 Kevin Magnussen 2024-05-25 20:31
20 Kevin Magnussen 2024-05-25 20:31 CET
Decision - Car 27 - Failing to set a lap time in Qualifications ↗ 27 Nico Hülkenberg 2024-05-25 20:32
27 Nico Hülkenberg 2024-05-25 20:32 CET
Final Qualifications Classification ↗ 2024-05-25 20:40
2024-05-25 20:40 CET
Provisional Starting Grille ↗ 2024-05-25 20:55
2024-05-25 20:55 CET
Pre-Course Procedure ↗ 2024-05-26 11:28
2024-05-26 11:28 CET
Post-Course Procedure ↗ 2024-05-26 11:29
2024-05-26 11:29 CET
Parts and parameters been replaced and or changed during Parc Fermé ↗ 2024-05-26 12:55
2024-05-26 12:55 CET
Final Starting Grille ↗ 2024-05-26 13:00
2024-05-26 13:00 CET
Infringement - Car 31 - Causing a collision ↗ 31 Esteban Ocon 2024-05-26 16:27
31 Esteban Ocon 2024-05-26 16:27 CET
Course Deleted Tour Times ↗ 2024-05-26 17:35
2024-05-26 17:35 CET
Provisional Course Classification ↗ 2024-05-26 17:46
2024-05-26 17:46 CET
Course Scrutineering ↗ 2024-05-26 19:41
2024-05-26 19:41 CET
Final Course Classification ↗ 2024-05-26 19:42
2024-05-26 19:42 CET
Championnat Points ↗ 2024-05-26 19:45
2024-05-26 19:45 CET
FIA official decisions and documents (fia.com) · PDF original PDF links
Record Basis · Calculation basis
Course order is the final classification(post-race penalties applied) · les qualifications session data 2003+ · lap times 1996+ · pit stops 2012+ (pit-lane transit, not stationary time) · Abandon = Finished(Finished·+N Tours) non-Finished statuses
Sources des données: Jolpica-F1 (Ergast compatible API) · weather·Direction de course OpenF1 (2023+) · Last fetched: 2026-09-05 14:15